Wind_Speed
4 4 6 8 8 3 4 6 8 8 3 1 8 14 12 9 2 4 5 6 7 6 9 13 9 8 6 5 4 3 1 2 6 7 8 7 8 9 7 7 6 4 4 6
3 7 2 5 4 2 3 6 6 2 3 1 8 18 15 4 4 3 3 0 4 7 8 9 10 10 7 6 4 2 1 2 5 5 6 5 7 5 7 5 5 3 4 6
5 2 3 1 3 3 5 5 3 3 8 6 8 7 3 2 3 5 3 4 6 8 8 8 8 8 8 6 4 3 2 2 3 5 4 4 5 4 5 5 4 4 4 4
5 3 3 3 3 5 4 3 3 4 6 3 2 5 4 5 5 5 7 5 6 5 4 6 7 7 7 7 4 3 2 1 3 4 4 5 5 6 7 11 8 7 3 3
4 4 3 3 2 1 1 2 3 2 2 4 3 1 5 4 5 6 6 7 6 8 8 6 7 8 9 4 4 3 1 1 2 3 3 5 4 5 8 8 10 4 6 3
3 1 3 2 5 5 5 2 2 0 1 1 1 2 5 3 5 7 6 7 7 7 7 7 12 8 10 5 4 2 1 1 2 3 4 5 5 6 9 9 8 8 7 4
2 3 2 1 4 2 3 1 3 4 2 5 1 0 8 2 5 7 9 8 8 8 7 8 8 9 11 9 6 3 1 2 1 2 4 4 5 6 8 8 6 9 9 5
7 5 8 6 1 5 6 3 4 5 3 3 3 5 5 4 7 6 7 9 8 8 6 6 6 9 11 9 6 3 2 3 1 2 4 4 4 6 8 10 9 8 9 8
6 1 2 4 4 2 5 4 2 5 1 3 4 6 1 4 3 5 6 6 7 7 7 8 8 9 12 10 7 5 4 4 2 2 3 4 5 5 7 11 9 9 9 9
4 3 3 2 2 1 2 2 3 1 3 4 4 4 5 5 7 8 8 8 7 7 7 7 8 11 11 11 8 6 5 5 2 2 4 3 5 5 6 10 10 9 10 11
4 3 1 1 7 7 3 2 4 0 3 5 1 5 4 5 9 10 9 9 8 8 7 7 8 15 15 12 9 7 6 6 1 2 3 4 3 4 6 10 11 12 13 11
5 4 4 6 2 3 3 3 6 4 5 1 2 6 2 5 2 6 9 8 7 7 7 6 10 18 16 13 11 8 7 7 3 2 4 4 3 5 7 10 11 11 11 9
6 4 3 3 2 3 5 6 4 1 2 6 6 5 2 4 3 4 6 7 7 7 7 6 7 9 17 17 13 11 8 6 5 2 5 4 4 6 7 10 11 11 9 6
1 1 5 10 4 5 6 8 12 5 3 5 6 4 5 6 7 6 7 7 7 7 6 6 7 7 16 19 17 14 11 8 6 4 5 5 6 6 8 10 11 11 9 9
1 3 1 2 1 3 6 5 16 16 12 7 7 10 9 9 9 8 8 5 6 7 4 6 6 8 15 20 19 16 13 11 8 5 7 7 7 7 9 11 12 14 15 15
3 2 1 3 2 1 5 9 10 13 4 6 4 7 7 6 6 5 7 7 8 9 9 8 7 6 16 23 22 19 16 14 10 7 7 9 8 9 11 13 14 17 20 22
2 3 2 4 3 2 9 9 13 8 10 14 10 13 6 5 8 8 8 9 10 9 8 9 11 11 20 26 26 23 19 16 13 11 9 11 11 12 14 15 17 20 24 25
4 1 1 2 1 8 4 3 16 21 12 19 8 7 6 5 4 5 7 8 9 8 8 8 9 15 25 28 26 24 21 18 17 14 13 11 14 16 15 18 20 22 25 28
10 5 2 3 4 10 12 4 8 9 14 20 24 21 5 3 1 9 11 10 8 7 6 9 19 23 26 31 29 27 23 21 19 17 16 13 14 17 17 19 20 21 24 25
10 9 7 4 5 10 3 10 12 3 7 7 19 19 16 6 3 10 5 6 6 7 10 14 21 26 29 30 31 31 26 23 21 20 18 17 17 18 19 18 19 20 23 25
5 4 12 12 9 8 4 5 8 8 3 11 17 16 10 9 6 5 8 6 6 7 12 19 23 23 27 35 33 29 29 26 23 22 20 18 17 17 18 19 18 17 19 20
10 9 5 5 8 14 4 3 12 5 3 3 7 7 9 6 8 8 7 8 8 9 13 19 19 21 30 35 34 28 27 28 26 24 23 21 18 16 15 16 16 15 15 16
6 7 8 9 6 5 8 2 12 5 4 4 3 5 9 9 7 9 7 8 7 9 15 19 22 25 28 33 31 29 27 28 29 26 23 22 20 17 17 17 17 16 14 16
3 1 3 1 8 10 7 7 6 5 10 2 5 6 9 9 9 7 8 7 7 10 14 21 25 21 25 30 27 28 28 29 29 28 24 22 21 19 17 17 14 14 13 12
6 8 6 13 9 4 5 7 9 10 5 4 4 6 8 9 9 7 7 8 7 11 17 24 22 20 27 30 28 26 28 28 28 24 22 21 20 19 18 15 13 12 10 9
7 8 8 9 7 11 13 12 9 8 9 8 5 4 5 7 9 8 7 6 9 13 20 21 23 24 28 30 28 28 30 32 29 25 23 18 15 16 16 15 14 10 6 6
Wind_Direction
211 203 213 215 211 2 334 307 295 296 128 19 254 269 273 270 336 330 279 266 226 208 122 119 139 154 163 168 179 189 206 300 325 326 336 342 344 332 321 317 321 313 311 298
131 233 76 75 66 20 271 283 286 295 84 96 291 288 285 97 97 67 326 201 178 121 108 135 158 166 186 185 185 223 238 321 319 322 331 335 336 326 313 327 339 327 320 313
214 93 91 153 135 202 227 245 346 320 326 240 290 272 173 120 123 132 234 26 117 133 156 166 164 179 182 182 193 182 218 290 310 325 348 345 353 335 330 343 335 321 326 292
240 104 162 157 219 181 255 27 52 329 17 285 18 284 262 154 179 192 169 174 171 137 122 143 146 155 168 129 179 190 238 302 325 350 350 3 8 337 329 330 326 325 340 303
225 146 174 188 97 79 143 34 50 14 306 356 217 239 258 129 202 193 179 182 164 164 166 172 140 111 112 148 156 183 255 1 347 339 360 20 3 338 324 328 332 344 331 351
80 336 344 61 74 47 134 145 124 56 15 343 196 144 281 187 219 142 163 157 166 141 125 110 111 128 140 164 166 180 190 43 1 353 16 25 3 343 337 340 343 333 344 350
118 192 110 225 106 85 241 109 359 344 7 228 111 62 250 193 106 154 169 177 166 155 155 163 153 173 163 166 173 182 147 99 25 13 28 22 14 337 333 332 339 337 334 328
156 269 172 175 213 194 188 169 167 212 224 273 7 243 260 79 111 88 137 161 158 156 160 151 160 151 149 150 163 177 146 106 65 62 33 21 4 353 331 317 322 310 307 307
157 281 55 12 5 16 193 186 166 104 61 38 220 261 180 132 148 180 188 177 185 175 166 159 139 146 145 157 165 168 139 125 107 17 34 29 1 350 331 322 327 323 314 315
214 86 345 75 283 261 270 323 98 339 163 245 282 266 237 218 208 205 201 202 198 161 146 142 144 143 143 147 156 160 133 121 110 17 52 18 6 340 334 316 327 327 322 320
132 120 6 80 208 183 171 216 225 142 175 176 229 261 211 154 184 192 194 193 186 163 169 167 149 146 146 148 153 157 140 135 120 68 54 38 341 342 349 341 339 339 329 316
177 105 152 200 341 1 328 226 188 148 219 247 150 272 140 118 102 145 176 157 156 157 150 140 143 141 147 154 155 157 148 138 141 100 77 44 347 24 5 343 342 346 337 333
190 206 99 330 350 354 225 197 235 144 88 199 145 255 143 147 227 227 191 185 186 169 157 151 136 151 160 160 160 157 156 147 133 131 86 60 27 30 5 350 357 10 5 20
84 188 206 222 172 133 185 203 200 180 146 179 220 258 221 237 220 209 208 215 213 195 178 175 157 161 164 159 160 158 154 150 135 115 100 87 56 32 15 9 23 42 57 77
198 247 135 284 289 178 187 198 195 201 211 179 236 207 216 217 211 214 220 236 220 240 219 186 172 164 158 154 156 155 155 146 141 126 109 94 78 51 42 34 44 65 82 92
192 273 56 283 326 277 251 217 192 223 320 297 226 272 214 212 146 169 216 208 228 227 222 213 196 169 160 161 160 155 157 147 143 139 120 106 94 75 65 64 68 77 88 97
240 175 128 258 287 252 279 192 185 200 213 213 219 234 161 205 214 217 214 203 221 222 209 181 187 180 168 169 165 160 157 148 144 143 131 119 101 89 84 82 85 88 86 90
193 165 276 243 356 233 260 299 192 198 201 217 269 248 197 197 200 210 199 205 216 212 193 166 163 169 172 171 166 156 156 152 143 147 143 126 113 105 104 100 95 95 96 93
207 187 226 244 223 304 287 154 152 176 239 214 219 236 203 152 336 270 220 205 203 195 153 163 167 159 163 167 162 157 154 154 148 153 154 139 121 114 111 104 103 103 102 99
180 218 198 168 217 230 121 200 168 162 266 210 203 225 227 131 244 262 131 115 109 119 135 138 149 149 153 165 166 157 157 159 157 157 157 147 135 128 121 115 112 109 107 105
160 189 215 216 242 278 255 121 118 175 245 199 188 212 166 189 209 160 134 107 118 133 141 147 150 153 158 165 167 160 161 166 163 157 159 156 147 138 132 128 122 119 113 109
173 179 178 200 224 254 164 68 166 237 228 215 188 187 179 159 148 151 147 147 148 138 147 155 148 151 163 168 169 164 169 165 162 161 161 162 161 152 144 138 130 125 121 115
200 201 200 196 215 243 208 218 232 5 302 221 198 173 154 155 184 161 162 161 159 152 155 161 153 150 167 168 178 169 170 167 162 164 164 164 162 159 158 153 145 141 140 132
226 162 209 181 235 242 233 257 256 247 238 277 248 176 166 170 160 169 151 156 153 153 161 158 156 154 161 171 180 180 171 170 167 167 168 168 165 158 156 153 151 149 141 136
201 153 189 253 247 327 270 240 256 262 239 204 189 187 191 156 165 160 166 170 155 157 166 167 165 167 168 174 177 180 175 174 170 171 173 173 172 167 159 156 151 152 145 145
202 202 201 233 184 221 242 246 249 233 243 238 184 166 188 180 160 148 168 161 156 163 166 169 172 173 171 175 176 177 182 177 174 172 173 182 183 175 171 162 144 135 135 133
Height
777 785 788 775 772 773 775 778 777 766 777 780 775 763 746 739 735 741 743 744 745 747 751 757 764 768 771 772 773 774 774 775 775 774 774 772 772 772 771 770 770 769 768 768
783 787 772 771 773 775 776 781 778 764 775 781 773 762 747 740 739 743 746 743 743 749 754 759 764 768 770 771 772 773 773 774 774 774 773 773 771 771 771 770 769 768 768 768
779 777 776 773 778 780 779 781 779 783 780 771 779 758 746 743 741 744 746 745 745 750 755 759 762 766 768 770 772 773 772 773 774 773 773 772 771 771 771 770 770 769 768 768
776 780 779 779 777 777 782 785 783 787 791 792 773 789 736 745 747 746 749 750 750 750 753 756 760 764 767 769 771 772 772 773 773 773 772 772 772 772 772 771 771 770 768 767
782 785 786 781 778 778 786 786 788 790 793 796 779 791 747 740 746 748 747 748 747 750 754 756 760 763 767 769 771 772 772 772 773 772 771 772 772 772 771 770 770 769 768 766
786 787 784 783 788 788 791 789 788 793 798 814 780 782 759 749 736 742 744 746 747 749 752 756 760 764 767 769 771 772 772 772 773 772 772 773 773 773 771 770 769 768 768 767
785 786 790 786 790 792 793 790 809 807 814 803 784 787 759 732 731 736 743 745 746 748 751 755 759 762 765 768 770 771 772 772 773 772 772 773 773 772 772 771 769 769 767 767
783 789 790 788 782 784 794 786 798 806 799 791 791 782 748 733 733 733 735 739 742 745 749 753 756 759 763 766 769 771 772 772 773 772 773 773 772 772 772 771 769 768 767 766
773 780 792 793 789 789 791 800 785 806 835 803 773 753 732 737 739 739 741 740 743 744 747 751 755 759 762 764 767 770 771 772 772 772 773 773 771 771 771 770 768 767 766 765
757 785 801 797 794 790 789 787 797 801 802 799 775 754 755 739 742 741 741 741 741 741 744 748 752 757 761 764 766 769 770 772 772 772 773 773 772 770 770 769 767 765 764 763
763 761 807 798 800 789 799 796 788 780 785 790 793 763 723 722 731 733 735 734 736 739 742 745 749 754 759 763 765 768 770 772 772 772 773 773 771 769 769 768 765 763 761 759
753 766 798 791 790 787 785 770 772 777 782 797 789 767 722 723 722 724 727 730 732 735 740 743 747 751 758 762 764 766 770 771 771 772 773 772 770 770 769 767 765 763 759 757
750 765 795 789 793 795 789 773 768 765 771 794 779 759 728 727 728 727 729 731 732 735 738 742 746 751 755 758 762 764 768 771 771 771 773 771 771 771 769 768 765 763 759 757
750 764 754 734 738 758 783 770 762 764 779 762 761 747 727 741 737 730 731 732 733 734 737 740 744 749 753 756 759 763 766 770 771 771 773 772 772 771 770 768 765 763 760 758
756 766 770 765 751 746 747 761 756 757 740 746 737 739 723 723 732 738 730 731 735 739 742 741 743 746 752 754 757 761 765 769 770 771 772 773 773 772 771 768 766 764 762 761
755 767 769 765 771 765 761 749 758 757 764 757 756 739 716 711 716 733 728 729 732 731 737 739 740 744 747 752 754 758 764 767 770 771 772 773 773 773 773 772 770 768 767 766
758 765 766 756 774 763 749 745 746 744 736 728 738 708 712 713 713 715 718 720 723 721 720 729 733 737 743 747 751 755 761 766 769 772 772 773 773 774 774 775 774 773 773 773
760 758 762 759 762 737 706 713 708 712 721 719 714 709 703 704 705 705 707 710 711 713 714 719 724 733 738 744 749 753 758 764 769 773 774 773 774 776 778 778 779 778 778 777
753 756 757 752 752 720 699 713 719 721 703 702 704 698 701 705 706 702 700 700 704 707 710 714 719 725 736 743 747 752 758 763 767 773 776 775 775 776 779 781 783 784 784 785
746 751 752 748 741 731 688 685 695 702 706 680 691 692 696 706 713 689 697 699 704 707 709 713 719 724 731 742 747 748 756 762 766 772 776 778 779 780 782 784 786 788 789 789
749 754 741 736 730 717 687 689 694 710 683 670 676 678 692 698 691 694 697 700 705 708 712 714 719 722 728 736 745 749 752 758 764 770 776 779 781 783 785 787 789 791 792 793
720 731 734 737 732 714 693 694 694 678 667 667 670 674 679 684 691 694 697 701 704 706 712 715 720 724 729 734 741 749 752 755 761 768 774 779 781 784 787 789 792 794 795 797
711 697 701 707 699 682 685 676 671 674 671 670 671 672 675 684 690 690 695 701 703 704 710 715 719 724 730 733 743 747 753 757 759 767 773 777 781 784 787 790 792 795 798 800
700 698 703 698 682 682 686 678 674 672 671 670 673 673 674 679 684 689 692 698 701 705 709 712 719 723 728 731 741 747 752 756 759 765 772 776 780 783 787 790 793 795 797 800
686 698 702 685 685 681 679 680 673 669 669 669 670 671 673 676 680 685 692 695 696 703 709 711 715 721 723 730 737 746 751 758 761 767 774 778 781 783 787 790 793 794 797 798
681 683 681 670 673 670 668 668 667 670 668 667 669 671 673 675 677 682 689 691 695 701 705 710 713 720 722 730 737 741 748 750 758 766 771 780 784 786 788 791 793 796 799 801